RH
5 5 5 5 5 5 6 6 6 5 5 5 4 4 3 3 3 3 2 2 2 2 2 2 2 2 2 2 2 1 2 2 2 2 2 3 6 14 24 30 23 18 22 27 32 33 35 37 38 38 38 40 44 45 45 44 46 52 63 68 71 80 78 72 80 85 90 86 77 83 82 78 73 63 68 70 67 64 62 61 49 48 54 54 51 43 40 40
6 6 5 5 5 5 5 5 6 6 6 6 5 5 4 4 3 3 3 2 2 2 2 2 2 2 2 2 2 1 1 2 2 2 2 2 4 8 16 26 28 23 20 22 26 30 31 33 35 35 36 37 38 40 41 39 37 43 58 66 66 71 77 76 81 84 88 89 80 84 87 83 82 69 62 73 76 66 65 65 47 39 43 41 38 37 38 35
7 7 6 6 5 5 5 5 6 6 6 7 6 6 5 5 4 3 3 2 2 2 2 2 2 2 2 2 2 2 1 1 2 2 1 2 2 4 9 17 26 28 25 22 21 26 29 31 32 32 33 33 34 35 35 33 31 35 41 49 54 60 72 82 89 87 86 88 79 83 87 82 90 80 62 68 72 65 71 71 56 44 34 28 26 28 33 33
9 9 8 8 7 6 6 6 6 6 6 7 7 7 7 6 5 5 4 3 3 2 2 2 2 2 2 2 2 2 2 1 2 2 2 2 2 3 5 9 18 26 29 28 22 22 26 28 30 30 30 30 32 31 29 30 30 36 37 38 45 52 69 85 94 90 83 83 80 83 86 80 85 81 71 72 70 72 78 73 67 57 39 30 24 21 25 29
8 9 9 9 9 8 7 7 6 6 6 7 7 7 7 7 7 6 5 4 3 2 3 2 2 3 2 2 2 2 2 2 2 1 2 2 2 2 3 5 10 18 26 30 27 22 21 25 28 29 29 29 29 27 27 28 28 34 38 41 44 45 62 82 90 90 86 85 81 81 84 83 81 76 75 75 68 68 74 71 65 57 46 41 34 27 24 24
5 6 7 8 9 9 9 9 8 7 7 7 7 7 7 8 8 8 7 6 5 4 3 2 3 2 3 2 2 2 2 2 2 1 2 1 2 2 2 3 5 11 18 26 30 26 22 21 24 27 29 28 28 28 29 28 27 28 33 42 46 44 59 80 85 86 85 82 83 85 78 76 78 78 80 76 65 61 67 69 56 43 44 48 46 36 24 21
4 4 5 5 6 6 8 9 9 9 8 8 8 8 8 8 9 9 9 8 7 5 4 3 3 2 3 3 2 3 2 2 2 2 2 2 2 2 2 2 3 6 11 18 24 27 27 23 22 26 30 30 29 31 31 29 27 27 29 38 46 50 62 75 77 75 78 82 86 87 77 73 75 79 85 78 70 66 67 66 50 36 38 44 46 38 24 18
4 4 4 4 4 4 5 6 7 8 9 9 8 8 8 8 9 10 10 10 9 7 6 4 4 3 3 3 3 3 3 2 3 3 2 2 2 2 2 2 2 4 6 10 15 20 23 25 25 27 31 35 35 34 34 32 29 29 29 33 43 56 64 69 70 64 66 78 84 81 77 77 74 77 85 80 77 72 62 59 54 45 37 35 39 36 28 21
3 4 3 4 4 4 4 4 5 5 6 8 9 9 9 8 9 9 10 11 11 10 8 6 5 4 3 3 3 3 3 2 3 3 2 2 2 2 2 2 2 2 4 5 8 11 13 17 22 26 30 36 39 39 37 35 32 31 32 31 39 55 64 67 70 65 60 66 77 81 76 74 71 74 79 76 76 71 59 59 61 51 38 34 32 29 31 28
3 4 3 3 3 3 3 4 4 4 4 5 6 8 9 9 9 9 10 10 12 11 10 9 8 6 4 4 3 4 2 2 3 3 2 2 2 2 2 2 2 2 3 4 6 7 7 9 13 20 25 31 36 39 39 38 37 35 34 33 34 44 58 68 71 70 65 62 68 75 74 76 75 75 81 78 72 72 68 68 68 53 38 36 31 25 28 29
4 4 4 4 3 3 3 3 3 3 4 4 4 5 6 8 9 9 9 9 10 12 12 11 10 9 7 5 5 4 2 2 3 3 3 2 2 2 2 2 2 2 2 3 4 6 7 8 9 12 17 22 27 33 36 37 39 36 33 34 33 33 42 57 66 70 69 68 67 66 72 82 80 77 83 79 70 72 71 69 72 59 40 34 29 24 24 26
4 4 4 4 3 4 4 3 3 3 3 3 3 4 4 5 7 8 9 9 9 10 11 12 12 11 9 9 9 4 2 3 3 4 4 2 2 2 2 2 1 2 2 2 3 4 5 6 8 8 11 15 18 23 27 32 36 35 32 32 34 33 32 39 54 66 69 74 72 64 72 79 76 78 80 79 80 76 68 66 70 62 46 35 27 24 24 24
3 3 3 3 3 3 3 3 3 3 3 3 3 3 4 4 4 6 7 9 10 9 10 11 13 13 11 14 13 4 3 4 2 4 4 3 3 2 3 2 2 2 2 2 2 3 4 4 6 7 9 10 11 14 19 26 30 32 31 28 30 31 30 34 47 63 68 73 72 64 74 75 70 82 83 79 83 74 61 62 66 61 52 41 31 30 30 27
3 3 3 3 3 3 3 3 3 3 3 3 3 3 3 3 3 4 5 6 8 9 10 9 11 13 12 16 15 7 5 4 3 4 5 4 3 2 3 2 2 2 1 2 2 2 3 3 4 5 7 8 9 10 12 15 15 19 21 21 24 24 28 35 43 57 66 72 72 66 76 79 74 88 88 75 76 73 62 58 63 66 62 51 39 37 40 37
5 5 4 4 3 3 3 3 3 3 3 3 3 3 3 3 3 3 3 4 5 8 9 9 9 10 13 17 16 10 8 7 6 6 4 4 4 3 3 3 3 2 2 2 2 3 2 2 3 3 4 6 9 10 9 9 7 9 12 13 19 21 29 38 38 48 61 72 75 69 78 82 77 87 89 76 73 74 64 58 65 71 70 65 52 43 45 44
8 7 7 6 6 5 4 3 3 2 3 3 3 3 3 3 3 3 3 3 3 5 7 8 9 9 11 16 16 14 13 10 9 7 5 5 4 3 3 3 3 2 2 2 2 2 2 2 2 2 3 4 7 10 10 9 7 7 8 10 15 21 31 39 37 39 51 66 68 66 77 81 79 89 93 82 76 75 67 63 69 69 66 64 58 49 43 41
9 9 8 8 7 7 7 6 5 4 3 3 3 3 3 3 3 3 3 3 3 3 4 5 7 9 10 13 15 16 15 13 10 8 8 8 5 4 3 3 3 3 3 2 2 2 2 3 2 2 3 2 5 8 9 9 8 8 7 8 11 19 31 39 43 38 41 59 62 66 76 74 82 98 98 87 82 80 72 68 70 69 68 62 56 53 42 37
9 9 9 9 8 8 8 7 7 6 6 5 4 3 2 3 2 3 3 3 3 3 3 4 5 7 9 11 13 15 16 15 12 10 11 11 8 6 4 3 3 3 3 2 2 2 2 2 2 3 2 2 3 4 6 6 8 11 9 9 9 16 27 35 49 51 49 59 64 72 77 75 88 102 99 87 79 80 76 72 70 67 72 67 58 55 46 39
10 10 9 9 9 9 8 8 8 7 7 7 6 5 4 3 2 2 3 3 3 3 3 3 3 4 6 9 11 13 15 16 15 12 13 14 13 9 5 4 3 3 3 2 3 2 2 2 2 2 2 2 3 2 4 4 7 10 11 12 9 12 22 31 52 71 77 74 68 73 77 81 93 99 100 86 73 80 81 76 73 69 74 69 59 58 50 43
10 9 9 9 9 9 8 8 8 8 8 7 7 7 6 5 4 3 2 3 3 2 3 2 3 3 4 6 8 11 13 14 15 14 13 16 17 14 9 5 3 3 3 2 3 2 2 2 1 2 2 2 2 2 3 2 4 7 10 13 12 12 16 29 56 74 85 84 72 72 79 85 91 96 102 85 68 80 87 85 82 76 75 69 60 60 54 45
9 9 9 9 8 8 8 8 8 7 7 7 7 7 7 7 6 5 3 3 3 3 3 2 3 3 3 4 5 7 10 12 14 15 14 15 16 16 12 8 5 3 3 3 3 3 3 3 2 2 2 2 3 2 3 2 3 4 6 10 13 15 11 24 56 73 80 83 75 76 81 83 86 95 100 79 67 81 86 88 88 79 76 69 60 60 59 51
7 7 7 7 7 7 7 7 7 7 7 7 7 6 6 6 7 7 4 3 5 4 3 3 3 2 3 4 3 4 7 9 12 14 15 15 15 16 14 11 8 5 5 4 3 3 2 2 2 2 2 2 2 2 3 2 3 2 4 8 10 15 14 23 54 75 82 83 76 75 77 74 76 91 98 76 68 78 76 80 87 80 76 71 63 62 63 55
6 6 6 6 6 6 6 6 6 6 6 6 6 6 6 6 6 6 6 4 6 7 4 3 4 3 3 4 4 3 4 6 8 11 14 15 15 17 17 15 13 11 7 4 3 3 3 2 3 3 2 3 2 3 3 2 4 2 2 5 7 11 17 29 50 62 75 84 77 72 75 75 74 87 98 78 69 74 66 67 75 72 72 76 71 65 62 56
5 4 5 5 4 5 4 4 5 5 5 5 5 5 5 6 5 5 6 5 6 8 7 4 4 5 8 10 8 4 3 4 5 8 11 13 15 17 18 17 17 16 12 8 5 3 3 3 3 3 3 3 2 2 3 2 3 3 3 3 5 9 11 31 54 52 61 79 76 72 77 81 80 85 91 80 75 82 70 57 55 55 64 74 74 68 63 59
4 4 4 4 3 4 3 3 4 3 4 4 4 5 4 4 5 5 5 5 5 7 8 7 6 7 10 12 9 4 3 4 3 6 8 11 14 15 16 17 16 17 15 13 10 6 4 3 4 4 3 3 3 2 2 3 2 2 4 1 3 10 9 31 62 60 58 70 69 71 78 81 81 80 84 82 80 84 76 61 48 41 55 71 76 77 71 63
3 3 3 3 3 3 3 3 3 3 3 3 3 4 3 4 4 4 5 5 5 6 7 8 9 8 9 11 11 8 4 3 4 4 5 8 11 14 16 15 15 16 18 18 15 10 6 4 4 4 4 3 2 3 2 2 3 1 3 3 1 7 10 27 58 66 62 64 64 65 71 76 77 76 79 80 79 82 81 71 52 35 47 67 71 76 80 70
3 3 3 3 3 3 3 3 3 3 2 3 3 2 3 3 3 4 4 4 4 4 5 7 8 9 9 10 13 12 6 3 6 6 4 5 8 11 14 14 15 16 19 21 17 12 9 6 5 4 4 4 2 3 3 1 3 2 2 4 2 4 7 16 43 63 62 60 62 61 63 67 70 73 75 71 71 78 80 77 64 39 33 46 51 66 83 77
4 4 3 3 4 3 3 4 3 4 3 3 3 2 2 2 2 3 3 3 6 7 6 6 6 8 9 9 10 12 10 7 8 9 7 5 6 9 11 13 15 15 19 20 14 13 15 10 6 6 4 4 3 2 3 2 2 2 3 3 3 4 4 7 28 52 58 56 58 60 63 62 61 65 69 67 64 69 71 70 70 52 26 26 41 60 78 77
6 5 4 5 6 5 5 5 4 4 4 4 3 3 3 2 2 3 1 2 9 11 9 6 5 6 8 9 9 11 13 11 11 13 12 8 5 7 9 11 14 15 18 19 17 18 20 14 11 10 6 4 5 3 3 4 2 2 3 3 3 4 4 6 18 41 55 56 56 58 60 61 58 57 60 62 59 63 64 53 59 61 32 19 33 49 69 79
8 7 6 7 9 8 6 5 5 6 5 5 6 5 4 3 2 2 1 5 13 15 10 7 7 6 7 8 9 11 13 14 14 15 16 12 7 7 9 11 14 15 16 18 19 21 22 21 18 13 8 5 5 5 3 3 3 3 2 3 5 3 5 5 10 31 44 45 52 57 56 57 58 56 57 57 56 62 61 42 42 53 34 16 22 34 55 73
11 11 11 12 11 8 6 6 7 9 9 11 11 9 7 6 4 3 3 13 24 21 12 7 6 7 8 6 7 10 11 14 17 18 19 17 11 8 8 11 12 13 17 17 18 23 26 24 20 15 12 10 7 5 5 3 3 4 3 3 5 5 10 10 7 18 24 24 32 43 50 53 53 53 54 55 55 54 49 34 26 35 35 22 22 32 43 54
16 16 15 15 12 7 7 8 9 10 11 12 14 13 11 8 5 4 6 16 23 19 11 5 4 7 9 8 10 12 11 13 17 17 20 21 17 12 8 9 11 11 13 13 16 26 29 24 21 20 16 13 9 6 6 6 3 3 4 4 6 11 17 16 9 8 9 10 13 22 35 42 44 47 49 54 58 49 42 34 18 20 37 32 22 36 46 47
19 18 17 16 13 8 7 9 10 10 10 10 14 17 14 9 7 5 8 13 12 8 7 5 5 9 10 13 19 19 16 18 22 22 21 21 21 17 11 9 11 12 12 15 20 23 25 27 27 24 18 14 12 8 6 6 5 4 3 3 5 9 11 8 5 3 3 4 4 10 18 20 25 32 36 44 51 51 54 56 33 16 39 47 26 27 42 46
18 18 19 17 12 10 10 11 11 10 9 11 17 19 14 10 10 8 7 8 8 7 7 5 10 20 24 32 47 48 34 28 33 35 31 27 24 21 18 13 11 12 12 17 23 20 20 27 26 21 20 18 14 11 8 7 6 4 4 4 3 4 3 2 3 3 3 3 2 6 8 7 10 13 17 22 29 40 52 58 44 22 44 70 46 21 24 32
19 18 20 22 19 16 14 13 14 14 16 19 21 19 15 14 14 13 9 8 12 15 10 5 21 53 66 72 88 83 55 43 44 39 34 32 29 23 18 15 12 14 19 21 21 20 19 21 23 26 28 25 20 15 12 10 8 6 4 4 3 2 3 3 3 3 3 3 2 4 3 2 4 3 6 7 10 23 30 33 33 21 34 61 45 16 12 18
27 22 20 25 29 27 24 25 27 27 28 26 23 20 20 18 16 14 11 7 13 23 20 10 29 78 98 95 103 84 49 51 56 42 36 32 33 41 34 25 20 15 17 18 15 21 24 17 24 38 35 28 25 20 16 12 9 8 6 4 4 4 4 4 4 4 4 4 2 3 3 2 3 2 3 3 2 8 10 10 17 13 17 37 33 13 8 15
35 28 22 27 36 37 35 35 33 33 33 28 25 25 24 21 17 16 14 8 11 26 37 30 37 81 104 97 104 86 53 60 65 55 57 50 55 80 79 66 61 47 38 34 24 27 30 20 25 41 39 32 32 28 24 18 12 11 7 5 6 6 6 5 5 5 5 4 2 3 3 2 3 2 2 4 2 3 4 3 8 7 4 21 32 19 7 11
41 36 28 30 40 42 38 35 32 32 35 34 34 33 26 22 19 17 16 12 11 20 41 52 52 80 104 97 101 99 82 82 80 76 84 76 73 92 96 95 96 85 76 65 46 37 36 33 37 40 35 34 38 38 33 25 17 13 10 10 11 9 7 4 6 7 4 4 3 2 3 2 2 3 2 5 6 5 6 4 8 10 3 12 33 31 15 9
48 45 36 31 39 47 44 44 43 38 38 42 45 39 29 24 22 21 20 17 16 18 34 56 60 73 99 102 98 101 98 98 95 95 99 86 73 74 82 98 103 93 78 54 37 35 36 40 42 34 31 40 47 45 36 27 21 17 16 18 18 15 11 6 4 5 4 6 6 5 8 6 3 3 1 4 10 11 11 8 9 14 10 12 27 31 21 11
58 52 45 38 46 57 54 55 56 48 47 55 57 45 33 27 24 26 26 19 21 25 31 47 56 63 82 98 103 99 99 102 99 99 102 93 84 72 69 89 103 100 81 44 22 24 28 37 42 39 48 60 58 44 29 23 23 20 20 23 21 17 17 14 9 6 6 8 11 13 15 12 9 13 12 11 13 12 14 13 9 12 15 14 17 21 16 7
74 67 60 51 59 72 70 70 70 62 63 73 70 54 41 34 30 31 31 25 29 38 40 42 52 63 69 82 99 101 98 102 100 100 101 97 100 90 77 85 97 101 91 58 31 27 32 41 45 51 68 75 62 41 26 25 28 24 22 24 21 17 17 17 14 10 6 6 10 15 17 18 22 26 26 27 24 15 11 12 9 10 14 13 12 13 8 3
79 77 70 62 70 83 82 80 82 78 83 90 82 65 53 44 37 35 34 33 40 51 54 49 53 67 69 67 83 97 100 101 99 100 101 97 101 100 92 91 93 98 94 68 44 35 29 33 41 54 68 72 65 52 38 33 34 33 30 26 23 20 16 14 11 9 7 4 7 11 15 26 36 34 31 35 34 20 10 9 7 8 10 11 15 15 6 3
71 78 77 72 80 94 92 88 89 91 96 99 91 78 65 52 45 42 41 43 50 54 56 55 57 69 73 62 64 81 96 102 100 99 100 100 100 100 99 98 94 94 83 60 49 37 20 25 43 56 64 67 68 65 55 46 44 43 39 32 27 22 17 16 13 11 10 6 6 7 8 20 38 41 35 37 38 25 13 10 8 5 5 8 16 15 5 3
59 73 84 88 94 99 99 98 97 99 100 99 97 89 72 55 48 51 54 55 56 55 52 55 61 66 67 60 54 61 80 97 101 99 98 100 101 99 100 101 98 92 76 65 66 50 26 32 52 61 66 68 68 67 64 61 56 46 38 35 34 29 25 27 24 19 16 10 9 9 4 11 31 43 38 37 41 34 19 14 13 9 4 4 8 8 2 3
31 40 58 78 89 91 96 100 98 99 100 99 100 94 75 57 51 58 67 64 59 62 62 59 60 62 62 63 55 48 59 81 96 100 98 99 101 100 100 101 100 93 81 82 87 66 37 36 51 63 68 66 65 64 63 63 57 46 39 39 39 35 36 40 34 26 22 16 12 12 7 7 23 41 43 38 40 40 29 20 18 14 7 4 3 3 3 4
17 18 24 39 50 55 66 79 87 95 100 100 102 95 76 62 59 65 74 73 67 66 60 51 53 61 66 71 63 48 46 63 85 97 99 99 100 100 100 101 101 97 90 95 96 75 49 41 47 60 66 64 64 63 61 61 58 52 48 47 45 39 38 46 43 31 24 23 20 16 10 8 15 27 38 41 43 43 33 24 23 18 10 5 3 2 4 6
19 19 19 23 26 27 34 49 71 93 100 98 101 98 81 67 66 71 72 72 75 68 47 37 46 55 60 67 66 58 53 57 74 93 100 100 100 100 100 100 100 99 97 101 96 73 52 47 52 61 65 66 68 67 66 67 63 58 52 47 47 42 35 41 47 38 29 27 26 22 14 13 17 20 24 35 44 42 32 27 26 20 10 6 5 3 4 5
20 21 23 25 24 26 29 32 47 75 94 98 101 95 78 66 67 68 62 62 70 63 39 32 44 51 55 61 61 63 65 59 64 85 99 101 99 99 100 100 101 101 98 102 99 77 58 54 57 62 64 65 72 77 77 70 61 60 58 52 52 50 38 35 42 45 38 29 31 33 22 16 23 24 19 22 29 28 24 24 24 18 10 6 6 7 7 5
24 24 24 26 26 28 32 30 33 55 84 100 101 89 75 72 73 68 60 61 66 57 36 31 41 45 52 63 64 65 70 62 57 72 91 100 100 99 100 99 100 101 99 101 102 92 78 62 52 55 59 63 76 84 76 65 59 59 61 57 58 57 47 37 39 47 46 36 35 40 33 25 28 26 22 23 23 19 16 17 18 15 9 5 6 10 10 7
30 32 30 29 30 30 33 36 32 42 74 100 98 83 74 77 80 77 74 72 68 57 41 38 45 43 39 48 54 59 64 61 55 61 78 95 101 99 100 100 100 100 100 100 100 100 95 73 49 51 57 61 79 87 71 59 58 61 64 61 58 60 55 46 42 46 49 45 41 43 42 42 41 36 33 36 34 25 16 13 14 12 7 4 6 7 7 6
38 43 41 36 36 36 36 39 33 35 69 100 97 79 69 68 72 77 80 77 69 57 44 43 51 50 41 38 41 47 53 52 52 57 67 85 99 100 99 100 100 100 99 101 100 100 102 83 55 53 60 63 80 91 75 60 58 64 69 62 55 56 55 49 45 44 48 49 47 48 51 54 56 53 46 44 45 38 24 16 14 10 8 9 8 7 7 6
40 47 53 50 47 44 41 42 38 35 59 92 98 84 71 68 72 73 75 77 72 59 48 45 44 41 39 41 38 38 42 44 48 55 60 72 91 100 100 99 100 101 98 100 101 99 103 93 66 56 63 69 83 91 81 67 62 65 67 61 55 56 54 50 46 44 47 51 51 52 56 58 61 60 54 48 49 45 30 20 17 10 6 9 9 8 11 13
Wind_Speed
21 21 20 20 19 19 19 19 18 18 18 17 17 17 16 16 15 16 16 15 15 14 13 12 11 10 9 8 8 9 9 11 14 16 17 13 11 14 16 18 19 18 21 22 21 19 17 17 18 17 15 14 14 12 11 12 11 11 10 5 4 5 3 1 2 3 2 0 0 1 1 2 2 2 2 3 4 4 2 1 1 1 1 2 3 3 4 5
22 21 21 21 21 20 20 19 19 19 18 18 18 18 17 16 16 16 16 17 16 16 14 13 12 12 11 10 9 8 9 10 13 18 17 11 12 16 16 18 18 17 19 22 22 21 19 19 19 17 16 16 15 14 13 13 12 12 10 7 8 7 4 1 3 5 3 2 1 1 2 2 0 1 2 3 3 3 2 1 1 1 1 3 4 3 4 4
22 22 22 22 22 22 21 21 20 19 19 19 19 19 18 17 17 16 17 18 18 17 16 15 13 13 13 12 10 9 9 10 13 18 14 10 13 16 16 18 19 19 19 20 22 23 22 21 20 18 17 17 16 15 15 13 12 11 10 9 10 8 5 2 4 7 5 3 2 1 2 3 1 2 4 3 2 2 1 1 2 2 2 3 4 4 4 4
22 22 22 22 22 22 22 22 21 21 20 20 20 20 19 18 17 17 17 18 19 19 18 16 15 15 14 14 12 11 9 9 13 17 13 13 17 17 18 19 19 20 20 20 21 23 25 23 20 19 18 16 16 16 14 13 12 11 10 9 9 8 6 2 3 7 5 2 2 0 4 6 4 4 5 4 2 2 2 3 2 3 4 4 5 5 5 4
23 23 23 23 23 23 23 23 23 22 22 21 21 20 20 19 19 18 18 18 19 19 19 18 16 16 16 15 14 13 11 9 14 17 13 14 19 20 19 19 20 21 21 21 21 22 25 24 21 20 19 17 17 15 14 13 12 11 10 9 9 8 7 4 3 4 4 4 3 2 5 8 6 4 6 4 2 2 2 3 3 3 5 5 5 5 6 6
25 25 24 24 24 24 24 23 24 23 23 23 22 22 21 20 20 19 19 18 19 20 20 19 17 17 18 16 15 14 12 12 15 14 10 13 18 21 21 21 21 21 21 22 22 22 23 24 22 20 18 18 17 15 15 15 14 12 11 10 9 9 8 6 5 4 4 5 4 4 7 8 5 3 6 5 3 2 2 2 4 5 5 5 5 6 6 6
26 26 26 26 26 26 25 25 25 24 24 24 24 24 23 22 21 20 20 19 19 20 20 20 18 19 19 18 17 16 15 14 14 13 12 13 17 21 23 22 22 22 22 23 24 23 22 23 22 20 19 18 17 16 17 18 15 13 13 12 10 9 9 9 10 6 4 6 6 6 7 7 4 3 6 6 2 1 2 2 5 6 5 4 4 5 5 6
29 29 29 28 28 27 27 27 26 26 26 25 25 25 25 25 23 22 21 21 21 20 20 20 19 19 20 19 18 17 17 14 12 16 17 15 17 22 23 23 23 22 23 24 25 25 24 23 22 22 21 19 19 19 20 20 17 15 14 14 11 10 10 12 13 9 7 8 9 8 7 7 4 2 5 6 2 1 2 2 3 6 5 4 4 4 3 5
31 31 31 31 30 30 29 29 28 28 28 27 26 26 26 26 25 25 23 23 22 21 21 20 19 20 20 20 18 19 20 15 14 18 19 16 17 20 21 23 24 24 25 26 27 26 25 23 23 23 22 22 22 21 22 21 18 16 16 15 14 13 12 12 12 11 9 9 10 8 8 7 3 1 6 8 4 1 2 2 2 4 5 4 4 4 4 4
32 31 32 32 32 32 32 31 31 30 30 29 28 28 28 28 27 26 26 25 24 23 22 21 20 20 20 19 17 21 23 18 16 18 19 18 17 19 20 21 23 25 26 27 27 27 24 23 24 25 25 25 24 23 23 21 19 17 17 17 16 14 13 13 11 11 11 10 11 10 9 9 5 3 8 9 6 2 1 1 1 3 5 4 3 4 4 4
33 33 33 33 33 33 33 33 33 33 32 32 31 30 30 30 29 28 28 27 26 26 25 23 21 20 21 18 18 25 24 18 16 18 20 21 19 18 18 19 22 25 27 27 27 27 26 25 25 27 27 26 25 25 24 21 20 20 19 18 17 16 16 14 11 11 11 11 11 10 10 8 6 5 9 11 8 3 2 3 3 4 4 4 4 4 5 5
34 34 34 34 34 34 34 34 34 34 34 34 33 33 32 32 32 30 30 29 29 28 27 26 23 22 20 16 20 28 23 19 18 18 21 22 21 19 18 19 20 23 27 28 28 28 29 28 27 26 25 26 27 26 24 21 21 21 21 20 19 18 17 15 13 11 11 12 11 10 9 8 7 7 10 11 8 5 3 3 5 4 4 4 5 5 5 5
35 35 35 35 36 36 36 36 36 36 35 35 35 35 35 35 34 33 32 31 31 30 29 29 26 25 21 17 25 28 21 20 20 20 22 23 24 21 19 20 20 22 25 28 30 30 30 30 28 26 26 28 27 26 24 23 23 23 23 23 21 19 17 15 15 13 13 14 12 11 10 9 8 8 12 13 10 8 5 4 5 5 5 5 5 6 6 6
34 35 35 36 36 37 37 37 37 37 37 37 36 36 36 37 37 36 35 34 33 32 32 31 29 28 22 19 28 28 21 22 21 21 23 24 26 23 20 21 21 22 23 27 31 32 32 32 30 29 29 28 26 27 28 29 28 25 25 24 22 19 16 16 17 16 15 14 14 14 12 10 9 7 12 16 13 10 7 5 5 5 6 5 5 5 5 6
34 34 35 35 35 36 37 37 37 38 38 39 39 38 38 38 38 38 37 37 36 34 34 34 32 31 25 24 30 28 23 22 21 24 27 27 27 25 22 22 23 23 23 25 28 32 33 33 33 32 29 27 28 29 29 29 27 25 24 22 19 17 15 16 16 16 16 15 16 15 12 9 6 5 11 16 14 12 10 7 4 5 5 5 6 7 5 5
35 35 35 35 35 36 36 36 37 37 38 39 39 40 40 40 39 39 39 39 39 37 37 36 34 33 29 28 31 30 27 25 25 27 28 28 27 25 24 24 25 24 24 25 26 30 34 35 34 33 31 29 29 29 29 28 24 24 23 19 18 16 16 17 15 15 16 17 19 16 12 9 3 3 13 18 17 15 11 7 6 6 5 5 7 8 7 7
37 38 38 37 37 37 37 37 37 37 37 38 39 40 40 41 41 41 40 41 41 40 40 38 36 35 32 31 33 33 30 27 27 27 26 27 27 27 27 26 26 26 25 26 26 28 31 35 35 34 33 31 30 30 30 27 22 21 20 18 17 16 16 16 14 14 14 15 17 14 12 11 6 5 16 19 18 16 11 7 7 6 5 5 7 7 8 8
39 40 40 40 39 39 39 38 38 38 37 38 39 40 40 41 42 41 41 42 42 42 43 41 39 37 34 34 34 35 34 30 29 28 26 28 28 29 29 28 29 28 28 27 27 27 29 31 35 36 35 32 31 31 28 23 19 19 18 18 18 17 16 16 13 11 11 14 15 14 11 11 13 11 19 21 20 17 10 7 8 8 6 5 8 7 7 8
42 42 42 42 42 42 41 41 40 40 39 39 39 40 40 41 42 42 41 42 43 44 44 44 42 39 36 35 35 37 37 35 33 30 28 28 29 30 30 31 32 31 31 28 26 27 28 30 34 34 32 30 29 28 25 21 21 20 20 20 19 17 16 15 14 8 9 14 16 17 14 12 18 17 20 23 21 17 11 8 8 9 8 6 9 9 7 8
44 45 45 45 45 45 45 44 43 42 42 41 40 40 41 41 42 43 42 42 43 44 45 45 43 40 39 39 38 39 40 38 35 33 31 31 31 32 31 32 33 34 32 28 27 28 30 32 30 26 25 28 29 28 26 25 24 24 24 22 19 19 16 15 16 14 11 18 19 17 15 14 18 19 24 25 20 18 12 9 9 8 10 9 9 10 9 8
46 46 47 47 48 48 48 48 47 46 46 45 43 42 42 42 42 43 43 42 43 44 45 45 45 41 40 42 41 40 41 40 38 35 34 34 34 35 33 32 33 34 31 29 30 32 33 31 24 21 24 28 30 30 30 29 27 26 26 24 22 22 18 17 19 19 15 21 19 16 14 16 18 19 27 25 17 18 15 10 10 9 11 11 10 11 10 9
46 47 47 48 48 48 49 50 50 50 49 49 48 46 46 44 44 44 43 41 42 46 45 43 45 42 38 42 45 43 42 41 40 38 36 37 37 37 34 33 33 31 31 33 35 36 34 25 18 21 25 27 30 32 33 32 29 28 27 27 26 25 20 17 21 23 18 21 20 17 16 16 16 19 27 24 15 18 18 13 12 11 12 12 11 11 11 10
46 47 48 48 49 49 49 50 50 50 51 51 51 51 50 48 48 46 44 42 39 44 47 43 42 42 38 40 45 46 44 42 41 39 39 40 38 37 36 35 32 31 33 36 37 36 30 21 20 25 25 27 29 30 34 34 34 32 30 30 28 25 21 18 20 23 22 23 23 19 20 18 15 20 27 24 16 19 20 16 15 12 12 14 15 13 11 11
47 47 48 48 49 49 49 49 50 50 51 51 51 52 52 52 52 49 47 44 39 41 47 45 42 41 38 38 44 49 47 44 43 42 42 42 40 40 39 36 34 33 35 35 35 34 29 24 26 28 26 27 28 30 34 36 37 35 32 32 28 26 24 19 16 15 18 25 26 22 23 21 17 21 26 21 16 22 23 20 18 15 13 16 17 15 12 11
48 48 48 47 47 48 49 49 49 50 51 51 51 51 52 53 54 54 50 46 44 45 44 44 45 43 40 41 46 50 48 46 44 44 45 44 42 42 41 39 37 36 37 35 34 33 30 29 32 31 29 29 29 30 32 33 36 36 34 33 29 27 26 23 22 16 16 23 28 25 24 24 21 23 27 23 19 22 24 22 20 15 14 17 17 16 15 13
48 48 48 47 46 47 48 49 49 50 50 50 51 51 52 52 53 54 53 49 50 51 47 47 48 47 45 44 45 47 48 47 45 45 46 45 44 44 45 43 40 38 38 36 36 34 32 34 36 33 30 29 31 31 31 31 34 36 34 32 30 30 30 27 31 28 24 23 26 29 27 26 26 25 25 26 23 24 27 26 22 15 12 16 16 15 16 14
46 45 46 46 46 45 45 45 47 49 49 49 50 51 52 52 52 52 52 51 50 51 51 51 49 49 48 47 46 47 48 47 44 44 47 46 45 46 47 46 43 41 40 39 40 36 33 36 37 34 31 31 33 31 30 30 31 33 32 32 32 32 33 31 33 36 32 26 27 32 29 27 28 27 26 26 23 25 30 28 25 19 12 12 15 16 16 15
43 42 42 42 44 43 42 41 43 44 45 46 48 49 50 51 52 51 49 46 43 45 49 51 51 52 51 50 49 48 47 46 43 42 46 47 46 46 48 48 45 43 42 42 41 35 32 35 36 35 34 34 32 28 27 29 31 30 31 34 34 33 34 33 34 38 36 32 32 30 30 29 29 28 26 26 24 26 31 31 29 26 17 10 12 16 15 16
40 39 37 37 40 41 41 40 39 38 39 41 43 44 46 49 50 49 46 39 34 40 47 50 52 53 53 53 51 49 47 48 46 43 45 49 49 48 48 48 47 46 44 43 42 38 35 36 37 36 36 35 31 28 28 31 31 29 30 34 35 35 36 35 36 39 40 40 40 32 28 30 30 31 28 27 28 28 31 32 31 29 23 14 10 14 17 18
38 36 36 35 37 38 38 37 36 35 36 38 39 39 41 44 46 46 44 35 29 37 45 49 52 52 53 56 55 52 49 49 49 47 47 49 51 49 48 48 48 48 47 46 46 43 39 38 39 39 37 36 33 31 30 32 31 28 30 35 37 38 39 40 40 41 44 47 47 40 33 32 33 34 32 30 29 27 28 30 31 30 24 16 9 10 17 19
38 37 37 37 36 36 34 34 35 36 37 38 38 38 39 41 43 42 39 32 29 35 42 47 51 51 52 55 56 56 54 51 49 49 49 49 52 52 50 50 51 51 51 50 49 46 44 43 42 41 38 37 36 35 33 33 32 30 31 35 39 40 38 39 42 45 49 50 47 43 40 38 38 35 31 30 28 26 24 24 27 29 24 16 10 7 16 22
39 39 39 38 36 34 33 34 36 37 39 40 40 39 39 40 42 39 33 31 34 37 42 48 51 52 53 53 54 55 56 54 51 50 50 49 51 54 53 52 52 53 54 53 51 50 47 45 43 42 40 39 39 38 37 36 35 34 34 36 40 41 39 39 43 48 51 48 43 40 41 42 43 39 30 26 29 26 20 20 24 26 23 19 11 8 14 19
40 40 40 39 36 35 35 36 38 39 40 41 41 39 39 40 40 37 32 31 36 38 44 50 52 53 54 52 51 53 54 51 48 47 48 48 50 52 53 52 51 52 52 51 52 51 47 45 45 44 42 42 41 41 42 41 39 37 37 38 39 40 40 42 44 46 47 44 40 40 42 44 44 41 34 30 32 27 17 20 26 25 24 24 16 11 13 13
40 40 40 40 38 37 38 39 40 41 41 40 39 37 38 39 38 37 35 30 32 39 44 49 51 52 52 48 44 48 51 49 45 44 43 45 47 50 52 51 51 51 51 51 51 51 50 48 47 46 44 44 43 43 42 41 39 37 36 35 35 36 37 39 40 41 42 41 39 41 44 45 44 41 38 36 37 32 23 23 29 28 27 29 25 18 15 14
42 42 41 41 40 40 40 41 41 40 39 37 35 35 36 37 37 36 36 29 26 36 41 45 51 50 46 43 41 44 48 48 48 49 46 44 45 48 51 52 51 50 51 52 51 52 53 50 46 45 46 44 42 42 41 41 39 37 36 36 35 34 35 36 37 37 38 40 40 43 43 42 42 41 38 38 38 36 32 30 31 30 30 33 31 25 19 14
44 43 41 41 40 41 40 39 38 36 35 33 32 33 33 33 35 36 35 31 22 32 39 43 52 50 45 46 46 48 52 50 48 50 51 49 44 41 44 47 48 49 50 52 53 52 52 51 47 46 46 45 42 42 43 43 40 38 39 39 35 32 32 34 36 36 37 39 39 40 41 39 40 39 36 38 38 36 35 34 34 33 32 34 33 29 22 15
45 44 42 40 38 38 37 35 34 32 31 31 31 32 31 30 32 33 34 33 21 26 37 44 52 53 49 48 48 51 54 52 50 49 47 47 44 37 36 37 40 44 45 47 51 52 51 51 49 46 46 45 43 42 43 43 41 40 41 39 35 34 33 33 37 37 37 38 35 35 36 36 37 34 31 34 35 32 30 30 34 37 35 33 33 30 22 16
45 44 42 38 35 35 35 33 32 30 29 31 31 30 29 29 29 29 32 33 24 21 33 43 51 54 51 49 50 52 52 50 50 49 45 47 50 47 42 39 41 45 44 45 49 49 49 49 46 46 47 45 43 43 44 43 42 41 40 39 37 36 36 37 39 38 37 36 33 31 31 31 32 30 27 28 28 26 24 24 29 34 34 33 32 30 25 18
44 42 41 37 33 33 34 33 32 31 30 30 30 28 27 27 27 26 28 29 26 22 27 38 48 52 52 50 51 53 53 49 49 50 49 52 56 57 54 48 46 47 46 50 52 50 50 50 47 46 46 43 42 45 47 46 44 43 42 41 39 37 37 39 39 38 35 32 30 27 26 27 28 27 24 22 20 19 19 20 24 28 30 31 32 32 29 21
42 39 38 37 34 32 33 33 33 33 31 30 30 28 26 25 24 24 25 25 24 22 24 31 39 45 50 51 50 52 54 52 52 54 54 57 58 60 61 55 47 45 45 52 57 54 54 54 52 45 37 34 41 48 51 47 45 46 46 44 43 40 37 37 38 37 35 32 28 25 24 24 22 19 20 20 18 17 14 16 22 26 28 30 31 31 29 21
39 37 37 37 34 33 34 33 33 33 32 30 30 28 25 25 23 22 23 22 21 19 21 25 30 36 44 50 51 51 54 56 57 57 55 59 60 57 60 58 51 46 46 51 56 57 56 57 55 45 34 31 39 45 49 48 46 46 47 46 45 42 39 38 39 38 34 31 29 25 23 19 16 16 18 18 19 17 14 14 20 26 30 30 28 28 25 18
38 38 39 39 37 35 35 34 33 33 31 30 29 27 25 25 24 22 21 19 19 19 19 20 25 32 37 44 50 52 53 56 60 58 55 59 62 57 57 59 55 51 51 53 57 60 61 59 56 47 40 35 33 34 40 44 44 44 44 45 45 43 41 40 40 38 33 31 30 28 23 17 15 17 17 16 18 19 16 16 19 24 29 29 27 27 23 18
41 41 40 40 38 36 35 33 32 32 31 29 27 26 25 24 23 22 20 18 18 19 19 19 22 28 33 37 43 51 54 56 60 60 56 57 61 60 58 59 59 57 57 57 58 62 63 61 56 47 41 38 33 30 34 35 37 40 43 45 45 45 44 42 40 36 33 32 32 32 30 23 17 15 15 17 20 22 19 17 18 22 26 28 28 27 24 22
41 40 39 38 35 33 32 32 30 30 30 27 25 25 24 22 21 20 19 18 18 20 20 20 21 25 29 31 36 45 54 57 60 61 57 55 58 61 61 61 62 61 61 59 58 62 63 60 57 50 45 41 38 37 39 37 36 39 44 47 46 45 42 39 38 35 33 35 34 34 35 30 21 15 17 20 21 22 21 17 16 20 24 26 27 26 24 23
38 37 36 36 35 34 33 32 30 28 27 25 24 23 22 21 20 18 17 18 19 19 19 20 21 21 23 28 34 41 49 56 61 63 59 52 54 60 62 64 65 64 64 63 61 63 64 62 60 56 51 47 43 44 45 44 41 40 43 45 46 45 40 35 36 37 35 35 35 34 34 33 28 23 21 23 23 23 23 17 13 16 22 25 25 24 23 22
39 38 36 34 35 36 35 34 32 26 24 24 23 21 20 19 18 16 16 19 18 18 19 20 20 20 21 25 32 38 46 54 58 64 60 49 52 59 61 63 67 68 68 67 64 65 65 64 64 61 56 53 49 48 45 43 43 41 39 40 43 46 42 33 34 38 36 34 35 34 32 33 34 31 27 26 25 24 26 22 16 16 21 25 26 24 22 22
39 39 38 36 34 34 34 35 32 25 23 24 21 18 18 17 15 15 16 19 19 18 20 20 19 20 22 24 29 36 42 50 55 64 62 50 51 57 57 61 67 70 71 70 67 67 67 66 67 66 61 56 52 49 45 41 40 41 39 37 40 44 45 39 34 35 36 34 33 32 31 32 33 33 33 32 30 28 28 27 24 23 22 25 27 25 23 23
37 36 37 36 34 32 32 33 30 26 24 23 18 15 15 15 13 14 16 18 19 20 21 19 17 19 21 22 26 32 38 46 53 63 64 55 49 49 52 59 66 69 71 72 70 69 69 68 70 71 66 60 54 47 44 44 43 43 41 37 38 41 45 46 38 32 34 35 31 30 31 32 31 31 33 35 34 32 31 29 27 24 22 23 27 28 25 25
38 36 34 35 35 33 32 33 29 26 25 20 14 13 13 13 12 14 16 16 18 19 19 18 16 17 19 21 23 27 33 41 52 61 64 60 51 41 44 55 62 66 71 74 73 70 70 70 72 74 69 63 55 46 45 49 49 47 44 38 37 38 40 46 42 31 30 32 30 28 27 29 30 31 32 32 31 31 32 32 28 23 21 21 26 29 27 26
39 38 35 35 35 33 33 34 30 27 24 18 13 11 11 12 13 15 16 17 17 17 17 17 14 14 17 19 22 25 29 35 48 57 61 63 56 41 39 48 58 63 69 75 74 71 70 70 73 74 70 65 57 47 48 53 51 49 44 39 41 41 37 41 43 36 28 28 29 27 25 27 30 31 32 30 29 29 30 31 28 24 20 18 20 25 27 27
39 40 37 35 36 34 32 33 31 28 24 16 11 9 10 12 14 16 16 16 16 15 15 14 13 13 14 15 18 23 27 33 41 50 58 63 61 48 38 43 55 61 65 72 74 71 70 70 72 74 72 67 59 50 50 55 54 52 47 42 44 46 38 38 43 40 32 29 29 29 29 31 32 32 33 32 30 29 30 30 29 25 19 15 17 21 24 25
38 40 39 36 36 35 32 32 31 28 23 16 10 8 10 12 14 16 16 15 14 14 13 13 13 12 12 12 15 19 24 31 37 44 54 61 62 56 41 40 53 60 60 67 73 72 70 69 71 75 74 68 61 54 52 56 57 53 49 44 42 44 39 36 41 42 37 30 30 32 33 33 35 35 34 33 30 29 31 32 30 27 24 20 19 19 21 23
Wind_Direction
299 299 298 297 296 296 296 296 297 297 297 295 293 290 286 283 282 281 282 281 279 276 274 273 274 273 272 268 258 246 242 239 233 232 233 226 216 219 214 209 217 216 212 214 212 212 215 216 218 219 218 218 219 218 217 214 204 196 197 195 176 191 221 200 167 170 158 149 340 11 277 220 252 313 18 19 342 340 356 353 34 115 212 255 262 257 254 247
296 296 296 295 294 293 292 293 293 294 294 294 293 291 288 284 280 278 277 277 275 273 272 270 270 270 269 266 261 251 238 237 233 233 234 221 214 221 218 214 218 217 213 215 214 211 214 216 218 218 216 217 219 218 217 218 211 196 187 190 199 198 192 201 207 200 211 243 216 36 322 284 248 292 353 20 333 335 12 33 356 37 187 258 270 270 262 252
294 295 293 293 292 291 291 290 290 290 290 291 291 290 289 286 282 278 274 273 272 271 270 269 268 267 268 265 261 255 240 233 234 238 239 228 224 224 221 217 217 218 216 216 215 212 214 218 218 217 217 218 219 220 219 220 219 206 191 194 205 202 191 205 208 193 189 227 214 136 279 275 271 285 315 337 302 324 38 31 328 320 328 301 299 288 273 265
295 294 293 292 291 290 289 289 288 287 287 287 288 289 288 287 283 279 274 272 271 270 268 266 266 265 264 263 261 256 243 235 239 242 239 228 227 225 222 219 216 218 219 219 217 214 215 219 221 219 219 220 221 223 224 223 224 218 203 200 210 208 199 217 225 198 182 199 218 169 273 262 246 267 287 296 311 351 18 9 337 328 341 329 322 312 295 286
295 294 293 293 291 290 289 287 287 286 286 285 285 285 285 286 284 280 276 272 270 269 267 264 263 263 262 261 259 256 246 238 242 241 231 223 225 225 222 220 218 218 219 221 221 217 216 219 222 223 222 223 225 227 229 228 226 225 218 209 215 218 212 225 246 203 183 206 236 278 264 252 246 271 284 276 296 324 347 2 336 334 346 337 329 315 300 294
292 292 292 291 291 290 289 288 286 284 284 283 283 283 282 283 282 281 278 274 271 268 267 265 261 260 260 259 256 256 247 238 245 247 235 226 228 227 223 219 218 217 218 220 223 222 219 219 221 225 226 227 230 228 229 233 229 226 227 221 218 220 214 220 226 189 185 223 235 249 249 244 240 281 284 268 282 322 1 356 319 330 349 345 332 313 300 295
287 287 287 287 287 287 287 287 285 284 282 281 280 280 280 280 279 279 277 275 272 269 267 265 262 259 259 258 256 255 248 240 247 252 238 223 224 229 226 221 219 217 218 219 223 225 223 220 220 223 226 229 230 225 227 234 232 226 228 229 224 220 216 225 230 205 191 228 229 225 242 244 228 242 258 259 282 342 356 338 310 319 334 339 330 317 307 296
284 283 283 282 282 282 283 283 283 283 282 280 278 277 277 277 277 276 275 274 273 271 267 265 264 260 257 256 255 254 251 240 237 243 238 223 219 226 226 222 221 218 219 220 222 225 225 221 219 221 224 228 228 223 225 231 232 228 229 232 227 221 220 228 237 230 200 208 226 224 231 239 228 239 259 266 258 189 317 321 309 311 317 318 318 322 315 298
284 283 282 280 280 279 278 278 278 279 279 279 278 276 275 274 274 273 272 272 271 271 268 266 264 261 258 256 255 255 251 236 227 237 241 232 224 228 228 223 221 220 220 221 222 226 227 224 220 221 222 224 226 224 226 231 231 227 228 232 227 220 222 226 231 237 220 200 215 223 226 228 198 253 271 270 254 223 303 297 282 301 306 302 303 320 318 297
283 282 282 280 279 278 277 275 275 274 274 275 275 275 274 272 271 270 269 268 268 269 268 266 263 261 259 256 256 255 248 236 231 239 243 240 230 228 231 227 222 221 222 221 223 227 228 227 223 222 221 222 225 226 228 231 231 228 228 232 230 222 220 222 224 233 232 213 210 212 217 218 191 225 256 252 245 226 245 207 208 273 286 291 300 317 308 295
282 281 280 279 279 278 276 275 274 272 271 270 270 271 272 272 270 268 267 266 265 265 265 264 261 260 258 257 258 253 247 238 235 239 242 242 238 231 229 229 225 223 224 223 223 226 227 227 225 223 221 223 225 227 230 230 231 232 230 231 234 230 221 217 218 223 228 226 222 215 213 219 204 218 250 255 253 222 209 214 214 247 270 282 301 311 302 299
282 281 280 279 278 277 276 275 274 272 271 269 267 267 267 268 268 267 266 264 263 262 262 261 260 259 257 258 256 250 246 241 234 235 240 241 239 235 231 229 227 225 225 224 224 225 227 227 226 225 222 222 223 226 230 231 234 238 236 233 232 234 230 221 217 218 223 223 224 223 215 216 208 218 246 253 246 223 234 245 228 247 269 278 303 310 307 304
285 283 281 280 278 277 275 274 273 272 271 269 267 265 264 264 264 265 264 264 262 260 259 258 257 256 253 254 254 250 246 244 235 233 239 241 240 236 234 233 229 227 225 224 225 225 227 229 229 227 223 222 222 221 223 225 228 232 235 234 231 232 231 223 217 215 218 213 212 220 215 209 200 217 247 249 243 240 245 250 249 271 273 276 307 312 308 306
288 286 284 282 281 279 277 275 273 272 271 269 268 266 264 262 261 261 261 261 261 260 259 257 255 254 250 249 253 252 246 243 240 238 237 239 241 235 233 236 232 228 227 226 225 225 226 229 229 228 224 222 222 220 219 222 224 226 229 230 229 231 231 228 219 209 210 210 212 217 215 215 202 211 254 255 248 249 251 249 257 278 277 281 310 320 309 302
290 288 287 285 283 281 279 277 275 273 271 269 268 266 264 262 261 260 258 258 258 258 258 256 254 252 248 245 252 254 249 244 241 240 237 236 239 235 231 234 234 230 227 227 227 226 226 227 229 230 228 224 223 222 222 226 226 226 228 227 226 227 229 234 227 209 204 209 216 218 216 219 213 234 265 263 254 251 256 253 241 252 266 287 313 324 313 296
292 290 289 287 285 283 282 279 277 275 273 271 268 266 264 262 261 260 258 257 256 255 255 255 254 252 246 242 249 253 248 243 239 239 239 240 240 238 233 232 235 233 229 228 228 227 227 227 229 229 229 226 224 225 226 229 227 226 228 226 223 219 221 234 236 220 208 212 217 213 212 210 174 244 258 270 270 254 247 242 236 244 255 285 304 314 312 306
293 292 290 288 287 285 283 281 279 277 275 273 270 268 265 263 261 259 258 257 255 254 253 253 252 251 247 242 245 249 248 245 242 242 243 244 242 239 235 231 234 234 230 228 227 228 227 228 229 229 229 227 226 226 226 229 228 229 231 228 222 214 213 221 233 237 221 214 215 208 216 210 165 212 244 263 267 249 242 238 240 251 252 277 289 295 304 311
292 291 290 288 287 286 284 282 280 278 276 274 272 270 267 264 262 259 257 257 255 254 253 251 250 249 248 245 244 246 248 246 243 242 242 243 242 239 236 232 232 233 232 230 228 229 229 229 229 229 229 227 227 229 230 231 230 231 232 231 226 217 212 210 216 234 223 214 220 227 234 198 170 206 239 252 256 245 242 244 248 255 247 264 278 281 296 308
291 290 288 287 286 285 284 282 281 279 277 275 273 271 269 266 263 260 258 257 256 255 254 252 249 248 247 245 243 244 244 243 241 239 239 241 241 240 236 232 232 232 233 232 230 231 231 229 229 230 232 231 230 233 235 234 231 231 230 229 228 220 215 208 195 176 198 224 235 242 251 210 180 197 229 244 251 242 236 256 264 258 249 261 274 276 287 294
290 289 288 286 285 284 283 281 280 279 277 275 273 271 270 267 265 262 259 257 255 254 254 253 250 247 247 245 242 242 243 242 241 239 238 239 239 239 236 232 232 232 233 234 234 234 233 231 231 232 234 235 233 233 234 232 228 227 227 225 224 222 215 206 189 160 186 234 246 248 255 238 203 202 226 239 247 242 240 262 270 264 260 267 273 274 277 281
290 289 287 286 284 283 282 280 279 278 276 275 273 271 270 268 266 264 260 258 257 255 252 253 252 247 246 248 244 241 242 242 241 240 239 239 240 239 237 234 234 234 234 235 234 235 233 232 232 231 231 230 230 230 231 230 227 226 227 223 219 217 210 202 188 163 186 228 242 251 256 245 219 211 232 241 243 246 245 252 260 268 269 266 269 274 275 277
291 289 287 286 284 282 281 280 278 277 276 274 273 271 269 267 266 264 262 258 257 257 253 251 253 250 246 248 246 241 240 241 239 238 238 238 240 242 240 237 236 235 234 233 233 234 235 232 230 229 227 226 225 225 227 227 226 224 225 224 220 212 199 195 186 164 182 225 236 245 254 251 225 217 239 247 246 249 249 247 254 265 271 269 267 270 273 279
293 291 289 288 285 283 282 280 278 276 274 273 272 270 269 267 265 264 263 258 254 256 257 252 250 251 247 247 248 243 239 239 239 236 236 237 238 240 241 238 236 235 234 234 234 235 236 232 229 229 226 226 224 222 224 224 223 222 220 221 223 217 198 184 186 174 183 221 239 245 254 258 231 221 240 252 260 265 260 249 241 243 258 264 261 259 264 274
296 294 292 291 289 286 284 283 280 277 275 272 271 269 268 267 265 263 262 260 255 252 255 255 250 248 247 246 246 243 238 236 236 235 234 235 235 237 238 237 235 234 235 236 236 235 232 228 229 228 224 224 224 222 222 222 221 219 218 218 218 221 211 178 182 203 195 212 233 243 250 250 228 225 242 252 263 269 267 256 236 225 234 245 250 254 255 263
300 298 297 296 295 292 289 288 285 282 278 275 272 269 267 265 264 263 261 260 257 252 251 253 251 247 243 242 243 243 240 236 235 235 234 233 233 235 236 236 233 233 234 235 235 233 228 227 230 228 224 222 223 224 224 224 223 219 217 220 214 216 217 181 171 210 216 212 225 231 235 238 232 236 248 255 258 261 268 265 246 231 226 228 236 247 252 255
304 303 302 300 300 299 295 293 291 288 285 281 277 273 269 265 262 262 261 259 256 253 249 247 247 247 243 241 243 244 242 237 235 236 235 232 231 232 234 234 232 231 233 233 234 230 224 226 230 230 227 225 224 224 224 224 225 221 215 218 217 212 214 193 174 191 208 212 227 233 228 231 237 238 242 249 251 254 262 265 261 253 221 212 223 239 249 251
309 308 307 304 304 303 301 300 297 294 292 288 283 279 275 269 264 260 259 258 256 253 249 245 242 242 241 238 239 241 241 238 235 236 236 234 231 230 233 234 232 230 230 231 232 228 223 225 229 229 228 228 225 223 225 226 226 224 213 212 217 214 215 207 186 185 196 203 221 236 237 232 235 237 239 245 243 245 253 258 264 267 241 218 225 228 239 248
314 313 312 310 308 306 306 305 303 302 299 296 291 287 282 276 269 263 258 258 257 251 247 244 240 238 238 237 236 237 239 237 235 234 235 234 230 229 232 233 233 231 229 231 232 229 225 227 230 230 228 229 228 223 224 227 228 223 212 209 213 215 217 217 202 188 189 197 205 223 240 238 237 242 242 242 240 243 251 253 255 261 264 252 222 212 226 244
319 316 314 313 312 311 310 309 307 307 304 300 297 294 291 283 275 268 263 262 258 248 244 243 240 238 236 235 234 233 234 234 232 230 231 232 229 227 228 230 232 231 228 230 232 227 223 225 228 228 227 227 227 224 222 225 228 222 213 209 209 212 215 217 213 196 189 198 199 202 225 237 243 251 249 245 249 251 252 251 248 250 262 270 229 210 222 233
321 318 316 315 314 314 313 312 311 311 309 308 307 305 303 295 287 279 271 265 254 243 240 238 238 237 235 234 233 231 229 230 230 228 227 229 228 225 225 226 229 230 228 228 228 225 220 221 224 225 225 225 224 223 223 225 226 221 214 209 206 209 211 214 216 206 200 204 199 192 203 220 233 246 253 253 256 257 252 249 247 245 254 270 259 222 218 222
322 319 317 316 315 314 313 313 313 316 317 316 315 313 311 307 301 294 283 268 248 236 235 234 234 235 234 232 233 232 229 226 227 226 225 226 227 224 221 222 223 225 225 224 225 225 220 218 221 222 221 221 221 221 222 225 224 220 216 212 209 209 210 213 214 213 216 215 207 197 197 205 215 226 243 252 250 252 248 243 249 252 251 261 271 231 211 217
322 320 318 315 314 312 311 311 312 315 315 313 312 310 311 313 309 306 296 272 247 235 233 232 230 230 231 229 229 231 228 224 223 224 224 224 226 226 222 221 222 223 224 224 223 224 221 219 220 220 219 219 219 219 220 222 221 218 216 213 211 209 209 213 214 216 222 224 219 212 206 209 212 211 219 237 241 243 249 250 258 261 253 251 248 185 189 211
322 321 318 315 312 308 307 308 308 309 307 308 308 307 310 313 312 313 308 283 262 249 235 229 226 224 225 224 224 227 224 218 215 219 222 222 224 226 225 222 221 223 225 226 227 225 222 221 221 220 220 220 219 219 219 220 220 219 218 216 215 214 216 220 221 222 226 227 225 221 220 224 224 217 213 223 231 232 239 256 263 266 259 253 243 195 189 212
321 320 318 315 312 307 305 304 303 302 302 304 305 306 310 312 313 318 319 305 278 258 239 226 221 219 218 216 217 221 218 208 203 206 212 217 220 223 225 223 221 222 223 225 226 226 222 220 221 221 221 220 219 220 222 222 222 222 223 225 224 225 228 230 231 231 231 232 229 224 227 233 234 232 229 230 233 227 222 241 255 261 256 250 249 238 223 220
321 319 317 316 312 308 305 304 302 301 302 303 305 307 310 312 314 319 325 320 281 255 244 228 215 211 210 205 202 208 209 203 199 200 204 210 214 219 222 223 221 220 222 224 223 224 223 220 220 223 223 221 219 221 223 223 223 222 223 227 227 226 229 232 233 235 234 234 232 229 232 237 238 241 241 241 242 234 229 237 246 252 246 240 246 249 242 233
322 320 317 316 313 310 308 306 305 303 304 304 304 307 309 311 313 316 325 327 288 252 246 229 210 203 203 199 198 205 208 203 199 199 202 205 207 214 221 224 223 220 222 225 223 222 224 219 216 221 224 222 220 220 222 223 222 222 223 226 229 228 227 230 233 234 234 235 235 235 239 241 241 245 245 246 248 243 240 241 244 249 246 238 242 249 247 233
323 320 318 316 314 312 310 308 306 305 303 302 303 305 306 309 312 315 324 329 304 251 241 229 212 203 199 198 199 206 208 202 198 196 196 196 195 200 212 220 223 221 220 223 222 221 221 219 218 221 222 221 222 221 221 222 221 222 226 227 227 227 224 227 230 232 234 236 236 237 241 243 242 243 243 247 252 251 247 243 241 246 248 241 240 247 244 224
322 320 318 318 317 314 311 309 306 303 301 301 302 304 304 308 312 315 323 327 312 259 237 232 221 208 200 197 196 200 203 198 193 191 187 188 191 192 197 205 212 215 212 213 215 215 215 218 220 221 220 220 223 224 222 220 219 221 227 229 227 226 225 225 226 229 234 237 237 237 241 244 244 241 239 243 250 252 249 242 235 239 246 243 239 243 246 236
322 320 319 320 321 318 312 310 306 301 300 301 301 302 303 307 310 313 319 321 310 277 245 237 230 218 210 202 193 194 198 192 186 184 183 188 194 196 195 197 207 212 208 207 209 209 211 214 215 216 219 219 220 223 223 219 218 218 222 227 228 226 228 229 229 230 231 234 238 239 240 242 245 247 246 242 239 239 241 235 227 231 242 242 236 239 244 240
323 321 320 320 323 320 313 310 306 302 302 301 298 299 301 304 307 309 312 315 310 290 261 245 237 230 224 213 201 197 194 188 184 183 185 190 194 197 196 194 201 207 206 206 207 206 208 212 211 208 212 221 221 221 221 218 217 216 217 223 225 223 223 227 231 231 228 228 232 235 236 242 250 257 256 256 250 241 236 226 219 223 236 240 236 235 239 237
321 320 319 319 322 321 315 311 306 302 302 299 296 298 300 300 303 304 304 309 309 296 277 258 245 243 236 223 218 211 195 187 187 187 190 192 190 192 195 194 197 201 202 203 204 205 205 208 209 198 192 212 226 224 222 220 221 220 219 221 225 225 222 222 228 229 227 226 229 231 233 238 249 249 242 253 261 251 239 228 216 217 228 237 235 233 236 234
323 321 318 316 317 315 312 309 304 301 300 297 294 296 297 297 299 300 298 300 299 292 287 274 255 251 246 233 228 221 202 192 193 195 197 195 189 187 190 194 196 197 200 200 201 204 204 204 206 196 184 198 221 231 229 225 225 225 223 222 225 229 228 226 229 230 227 224 224 228 226 221 235 244 232 235 253 250 236 227 218 217 225 230 229 230 233 227
328 326 321 317 316 313 309 308 304 300 298 296 292 292 292 292 294 297 295 293 293 291 292 285 266 255 251 241 232 227 216 204 201 204 201 193 188 187 187 190 192 195 199 201 201 204 204 202 202 195 184 188 202 223 234 234 229 226 223 223 225 230 233 233 233 232 230 226 222 224 223 214 218 236 230 224 240 247 235 219 213 218 226 227 225 227 229 221
335 334 331 329 327 321 315 312 307 302 298 293 288 286 288 288 289 292 292 289 293 297 293 286 273 258 253 247 236 232 228 218 211 208 199 189 187 187 185 187 189 192 197 200 202 204 203 200 196 190 184 183 186 201 218 229 230 222 219 219 221 225 229 231 231 229 229 228 224 222 223 219 209 207 218 223 231 244 243 226 214 219 227 232 231 233 234 225
346 344 342 340 336 330 325 319 314 310 302 294 286 282 282 284 285 287 289 286 291 298 295 287 278 265 255 246 239 236 234 230 221 208 195 187 186 185 184 186 188 190 195 198 200 203 201 197 193 187 182 180 182 191 203 218 225 220 217 217 217 216 216 223 229 226 225 228 228 225 223 221 211 198 208 224 229 239 246 238 227 226 227 232 238 240 237 229
354 354 353 350 344 338 333 326 320 316 308 298 288 278 275 279 282 285 288 287 289 294 296 291 280 269 256 243 240 237 237 239 228 207 194 188 185 184 185 187 187 189 193 196 199 201 200 196 192 187 181 178 182 188 196 211 224 225 219 214 213 211 207 212 227 228 223 224 228 228 224 222 219 210 207 217 222 232 244 246 245 242 231 228 236 240 236 232
357 355 354 354 351 347 341 332 325 322 317 307 290 273 272 275 278 283 285 287 290 294 297 293 281 272 262 248 243 238 240 246 233 209 197 191 185 184 186 187 188 189 192 195 198 200 199 195 191 187 183 180 181 185 190 199 216 229 228 216 210 208 203 205 219 227 223 220 223 228 226 223 222 220 217 218 220 228 242 250 251 250 240 228 228 233 232 233
355 353 350 349 351 351 348 341 333 329 328 316 290 273 278 277 279 289 289 288 291 295 297 293 283 275 268 259 250 242 246 251 235 215 205 196 187 186 188 189 189 189 192 195 197 200 199 195 191 188 185 181 178 182 187 186 195 218 228 220 209 206 205 204 209 221 224 219 217 221 227 226 223 223 225 226 227 230 238 245 247 249 245 229 222 224 227 231
351 352 348 345 348 351 351 349 344 339 337 322 290 279 283 277 283 297 300 298 294 293 294 291 285 276 268 265 259 252 255 251 234 222 215 203 192 189 190 191 191 190 192 195 195 198 200 196 192 190 187 181 176 181 188 184 187 203 218 216 202 201 207 205 201 208 221 220 213 214 224 229 226 226 229 232 232 230 233 238 240 242 240 229 219 217 221 229
349 351 348 343 345 350 350 351 352 349 342 324 292 287 287 282 287 293 299 303 296 290 289 285 284 280 270 267 263 260 263 252 234 229 224 210 199 194 190 190 192 192 193 195 195 196 200 198 193 190 188 182 179 183 189 188 188 196 208 209 194 192 205 208 200 197 206 214 210 206 212 219 221 225 228 229 232 232 233 236 236 235 238 233 225 222 223 229
349 350 350 343 344 349 350 350 354 356 348 328 296 298 305 297 295 292 296 305 298 289 287 283 281 283 279 273 266 262 262 255 241 234 229 218 207 200 191 186 191 192 193 195 195 194 198 199 194 189 186 183 184 187 190 190 190 191 200 205 193 186 195 208 203 193 193 208 207 196 202 213 214 218 222 224 227 231 234 237 233 228 227 224 224 228 230 233
349 350 351 346 343 349 352 350 354 359 353 335 303 299 315 314 306 299 300 307 300 286 283 283 281 282 282 276 272 265 257 255 251 239 231 225 214 205 195 185 188 192 194 195 194 194 196 198 195 189 184 184 187 189 190 192 193 192 197 202 193 184 189 205 206 194 187 201 207 196 199 214 219 220 225 226 223 222 228 233 231 224 222 221 221 226 226 228